RH
29 28 26 24 23 22 22 22 22 23 23 23 23 23 23 23 22 22 20 20 19 18 18 17 17 17 17 16 15 14 12 11 10 11 13 16 18 22 25 29 34 40 46 53 58 62 67 73 78 80 81 84 87 89 89 90 91 90 90 90 89 88 88 86 88 89 84 81 83 83 80 80 80 77 78 79 76 74 72 70 70 72 74 72 69
30 29 27 26 24 22 21 21 20 21 21 21 22 21 22 21 21 21 20 19 19 18 18 17 17 17 16 17 17 17 17 15 14 12 11 11 12 14 16 20 26 32 40 49 54 57 61 66 72 76 78 81 83 85 87 87 88 89 87 86 88 88 88 89 89 89 88 83 83 85 83 83 85 81 78 78 73 70 71 70 70 73 73 69 66
31 29 28 27 25 24 22 21 20 19 19 19 19 19 19 20 19 19 19 19 18 18 18 17 17 16 16 16 16 16 17 17 17 17 16 14 13 12 12 13 16 20 26 35 42 48 54 60 67 74 79 85 89 90 90 90 91 93 91 91 94 94 93 93 93 91 93 90 87 87 84 80 80 76 73 73 70 68 70 67 64 65 63 60 59
31 30 29 27 26 24 23 21 20 19 19 18 18 18 17 18 18 18 18 18 17 17 17 17 17 16 16 16 15 15 16 16 17 18 18 18 18 16 15 13 12 13 15 19 24 30 38 45 53 62 71 80 88 91 94 97 98 99 99 97 96 96 93 92 91 89 88 86 79 75 72 70 68 66 66 68 66 65 65 62 58 57 55 53 55
30 29 28 26 25 23 22 21 20 18 18 17 16 16 16 16 17 17 17 17 17 16 16 16 16 16 16 16 16 16 16 16 16 17 18 19 19 19 19 18 17 15 14 14 15 17 20 25 30 36 43 51 58 63 68 74 78 81 85 87 86 85 82 78 75 72 71 71 68 64 63 65 65 65 65 66 65 62 60 58 56 55 55 53 53
30 28 27 25 23 21 20 19 19 18 17 17 16 16 16 16 16 16 16 16 16 16 16 16 16 16 16 16 16 16 16 16 16 17 17 18 19 20 20 21 21 20 19 17 16 15 15 16 18 19 23 26 29 32 36 41 47 52 58 63 65 66 66 63 61 62 65 68 67 67 70 70 69 69 67 64 65 64 62 60 57 55 56 55 54
30 27 25 23 21 20 19 18 18 17 16 16 16 16 15 15 15 15 15 15 16 16 15 15 15 15 15 15 16 16 17 17 17 17 18 18 19 20 20 21 22 22 23 22 21 20 19 17 17 17 17 18 19 20 23 26 31 37 41 46 51 55 58 60 60 63 68 70 69 71 74 71 69 71 67 64 65 66 65 66 64 60 57 54 52
29 27 24 22 21 19 18 17 17 16 16 15 15 15 15 15 14 14 14 14 14 14 14 15 14 14 15 15 15 16 16 17 18 18 19 19 19 20 20 21 22 22 23 23 23 24 23 22 22 21 20 20 20 20 21 22 25 29 33 39 45 52 58 62 64 65 69 71 70 69 70 69 67 68 66 64 66 66 63 65 67 63 56 50 45
28 25 23 21 20 19 17 17 16 15 15 14 14 14 13 13 13 13 13 13 13 13 13 13 14 14 14 14 14 16 16 17 18 19 20 20 20 20 21 21 22 22 23 23 23 24 24 25 25 25 25 25 25 25 26 26 27 30 32 36 42 48 53 58 61 64 66 68 68 67 68 69 67 66 65 63 63 62 57 54 55 52 47 44 40
26 24 22 20 19 18 17 16 15 14 14 13 13 12 12 12 12 11 11 11 11 12 12 12 13 13 13 14 14 15 16 17 18 19 20 20 21 21 22 22 22 23 23 24 24 25 26 26 27 27 28 29 30 31 31 32 33 35 36 38 41 44 47 49 52 54 57 59 60 60 61 62 60 58 58 55 52 50 46 44 43 42 41 41 38
25 23 21 20 18 18 16 15 14 13 12 12 11 11 10 10 10 10 10 10 10 10 11 11 12 12 12 13 13 14 15 16 17 18 19 20 21 22 23 24 24 25 26 26 27 28 28 29 29 29 30 31 31 32 33 34 35 36 37 38 39 41 42 44 45 46 47 49 49 49 50 50 48 47 47 46 44 42 40 39 39 39 38 38 38
25 22 21 19 18 17 15 14 13 12 11 10 9 9 9 9 9 9 9 9 9 10 10 10 11 11 12 12 13 14 14 15 16 17 18 19 21 22 23 25 26 27 28 29 30 31 31 31 31 31 32 32 32 32 33 34 34 35 36 37 38 39 39 40 41 42 42 43 44 44 44 44 43 42 42 41 40 40 39 38 38 38 38 38 38
25 22 20 19 17 16 14 12 11 10 10 9 8 8 8 8 8 9 9 9 10 10 10 11 11 11 12 13 13 14 15 16 17 17 18 19 20 21 22 24 26 27 28 30 31 31 32 32 32 32 33 33 33 33 34 35 35 36 36 37 37 38 39 39 40 40 40 41 41 42 41 41 41 40 39 40 40 39 39 38 37 36 36 34 33
24 22 20 18 16 14 13 11 10 9 9 8 8 8 8 8 8 8 9 9 10 10 11 11 12 12 13 13 14 15 16 17 18 18 19 20 20 21 22 23 25 26 27 28 29 30 31 32 32 33 33 33 34 35 35 36 37 37 38 38 38 39 39 40 40 40 40 40 40 40 39 39 39 39 38 38 38 37 36 35 33 32 32 31 30
22 20 18 16 14 13 12 11 10 9 8 8 7 7 7 8 8 9 9 10 11 11 12 13 13 14 14 14 15 16 16 17 19 20 21 21 22 23 23 25 25 26 27 28 28 29 30 30 31 31 31 32 32 33 34 35 35 36 36 36 36 37 37 37 37 37 37 37 37 37 36 36 36 36 35 35 34 34 33 33 32 31 31 30 29
20 18 16 14 13 12 11 10 9 9 8 7 7 8 8 8 9 9 10 11 12 13 13 14 15 16 16 17 17 18 18 19 20 21 22 23 23 24 25 26 27 28 29 29 30 30 30 31 31 31 31 31 30 30 31 32 32 33 33 33 34 34 34 34 34 35 34 34 34 34 34 34 34 34 34 34 34 34 33 32 31 30 29 28 27
17 16 14 13 13 12 10 10 9 8 8 8 8 8 8 9 10 10 11 12 13 14 15 16 17 18 19 20 20 20 21 22 23 24 24 25 25 26 27 28 29 30 31 32 33 33 33 33 33 33 32 32 32 31 32 32 33 33 33 33 34 34 34 34 34 35 35 35 36 36 36 36 36 36 35 34 33 32 31 30 29 28 28 27 27
15 14 13 12 12 11 10 10 9 9 9 9 9 10 10 10 11 11 12 13 14 15 16 17 18 19 20 21 22 23 23 24 25 26 27 28 28 29 30 31 32 33 33 34 34 35 35 36 36 36 36 35 36 35 35 36 36 36 36 36 36 36 36 36 37 37 37 37 37 37 37 36 36 35 34 33 32 30 30 30 28 28 28 27 26
14 13 12 11 11 10 10 10 10 10 10 10 11 11 11 12 12 12 12 13 14 15 16 17 18 19 20 21 23 24 25 26 27 27 28 29 30 30 31 32 33 33 34 34 35 35 35 36 36 36 37 37 37 37 37 37 38 37 37 37 36 36 36 36 36 35 35 36 35 35 35 35 35 35 35 34 34 33 32 31 30 29 29 28 27
13 12 11 10 10 10 10 10 11 11 11 12 12 12 13 13 13 14 14 14 14 15 16 17 19 20 21 22 23 24 26 27 28 29 29 29 29 30 30 31 31 31 32 32 32 33 33 34 34 34 35 35 35 35 35 35 35 35 35 35 35 35 35 35 35 36 36 36 37 36 36 37 36 36 36 36 35 35 34 33 32 31 30 29 27
12 11 10 10 10 10 10 11 11 12 12 13 13 14 14 14 15 15 16 15 16 17 18 20 21 23 24 24 25 26 28 29 30 30 30 30 30 31 31 32 32 32 33 33 34 35 35 35 36 36 37 37 37 37 37 36 36 37 36 37 37 37 38 38 37 38 38 38 38 37 36 36 36 36 36 36 36 35 34 32 30 28 26 25 23
11 10 10 10 10 10 11 11 12 13 13 14 14 15 16 16 17 18 19 19 19 21 23 24 25 27 27 28 29 30 31 32 33 33 33 33 34 34 35 35 36 36 37 39 39 40 41 41 41 41 41 41 41 40 40 39 39 39 39 39 40 40 40 41 40 39 39 38 38 38 38 38 38 38 37 37 36 34 32 30 27 24 21 19 17
10 10 9 9 9 9 10 11 12 13 14 15 16 17 18 20 21 22 22 23 24 26 28 29 30 32 33 33 34 34 34 35 37 38 38 38 38 38 38 39 40 40 41 42 42 43 43 42 42 42 42 42 42 41 41 41 40 41 41 41 41 42 42 43 43 42 42 42 41 41 40 39 39 38 37 35 33 30 28 26 24 21 19 17 15
9 8 8 7 8 8 9 10 11 13 15 17 18 20 22 23 25 26 27 28 29 32 34 35 36 37 37 37 38 38 39 40 41 43 43 42 42 41 41 42 42 42 42 43 43 43 43 43 43 44 44 44 45 45 45 45 45 45 45 45 45 45 46 47 47 46 46 45 44 43 41 40 38 37 34 32 29 25 23 22 20 17 16 16 16
7 7 7 7 7 7 8 10 11 13 16 18 20 22 24 25 27 28 29 30 32 35 36 37 37 38 38 39 40 41 42 43 44 45 47 47 46 45 45 45 45 45 45 45 45 45 46 46 47 48 49 49 51 51 52 52 52 51 51 50 49 49 49 49 48 47 47 45 44 42 40 37 34 32 29 27 24 21 19 18 17 16 16 16 17
7 6 7 7 7 7 8 9 11 14 16 18 21 22 24 25 26 28 29 31 32 34 36 37 38 40 41 41 42 43 43 44 45 46 49 51 51 50 49 48 48 48 48 48 48 49 50 51 52 53 54 55 56 57 57 57 57 56 55 53 52 51 51 50 49 47 46 44 41 39 36 33 30 27 25 22 20 18 17 17 18 18 17 15 15
7 7 7 7 7 8 8 10 12 14 17 19 21 22 23 24 25 27 28 29 31 33 35 38 40 41 42 43 43 43 44 44 45 46 47 49 51 51 51 51 51 52 53 53 54 55 56 57 57 58 58 59 58 58 58 58 57 57 56 55 54 53 51 50 48 45 43 40 37 34 31 28 26 24 22 21 20 19 18 18 17 16 14 13 13
7 7 7 8 8 8 9 10 12 15 18 21 23 23 23 24 24 26 27 29 31 33 35 37 39 40 41 43 43 44 44 45 46 46 46 47 50 51 53 54 54 55 57 57 57 59 61 62 61 60 59 59 58 58 58 57 57 57 56 56 54 52 50 47 44 41 38 35 33 31 28 27 26 25 24 24 23 20 17 15 13 13 12 11 11
7 7 7 8 8 8 10 11 13 16 19 22 24 24 24 24 25 25 27 29 31 33 35 36 38 39 41 42 44 45 46 47 47 47 48 49 52 53 55 57 58 60 62 63 63 64 64 65 65 64 63 62 62 61 60 59 58 58 56 55 53 50 46 43 39 35 33 31 30 30 29 29 28 27 26 24 21 17 14 13 12 11 10 10 9
7 8 8 8 8 9 10 12 14 18 21 23 25 25 25 25 25 26 27 29 31 34 35 36 37 39 40 43 45 47 48 49 50 51 53 55 56 57 59 62 65 68 70 71 71 71 71 72 73 72 70 69 68 66 64 62 60 57 54 51 47 44 40 37 34 33 31 31 31 30 30 30 28 25 23 20 18 16 14 12 11 9 9 8 8
8 8 8 9 9 9 11 13 15 18 22 24 26 26 26 26 26 27 30 31 33 35 36 37 38 39 40 43 45 45 46 49 52 55 57 58 59 61 63 65 67 70 73 76 77 77 77 77 78 77 75 72 69 66 62 58 54 50 46 42 39 37 37 36 35 34 33 32 32 30 29 27 25 23 21 19 17 15 13 11 10 9 8 8 8
8 9 9 9 9 10 11 13 16 20 23 25 26 27 27 27 28 30 31 33 34 36 38 39 40 41 42 43 44 46 49 53 56 58 60 62 62 64 66 68 70 73 75 78 79 79 77 74 73 71 69 65 60 56 52 48 44 41 38 37 35 35 36 36 35 35 33 31 29 27 26 25 23 22 20 17 15 13 11 10 9 9 8 8 8
9 9 9 9 10 10 11 14 18 20 23 25 27 27 27 27 28 30 31 32 34 36 39 42 43 45 47 48 50 53 57 60 62 65 67 68 70 72 75 76 76 76 76 75 75 73 69 65 62 59 56 53 50 47 44 42 40 39 38 38 37 37 36 35 34 33 31 29 27 25 24 22 20 18 15 13 11 10 10 9 8 8 8 8 8
10 10 10 10 10 10 12 15 19 22 25 27 27 27 27 27 28 30 32 34 37 39 43 46 48 50 53 56 59 63 66 69 72 74 75 77 79 82 82 80 76 72 69 67 66 64 61 58 54 51 49 47 46 45 43 42 41 41 40 40 39 37 36 34 32 30 28 27 25 23 21 18 15 13 12 11 10 10 9 9 8 8 8 9 9
11 11 11 11 11 12 13 16 20 23 27 29 30 30 29 29 30 33 37 41 46 49 49 49 50 53 58 62 66 70 74 76 77 77 77 79 80 79 77 73 68 64 62 60 60 59 57 55 52 50 48 47 47 46 45 44 44 44 43 41 38 36 34 31 29 27 26 24 22 19 16 13 11 11 11 10 10 10 9 9 8 8 9 9 9
11 12 12 13 13 15 16 18 21 24 28 31 32 32 32 32 34 38 42 45 49 49 49 50 54 59 63 66 69 73 75 75 74 74 74 75 73 71 69 66 64 62 61 60 59 58 57 56 54 52 51 50 49 49 48 47 46 44 42 39 36 33 31 28 26 24 22 20 17 14 12 11 11 11 11 11 10 10 9 9 9 9 9 9 9
12 13 13 14 15 17 19 21 23 25 27 31 33 33 33 33 36 40 43 45 47 49 53 59 64 66 67 68 70 73 75 76 76 75 73 71 69 67 67 66 64 63 62 61 60 59 59 59 58 56 55 54 52 51 49 47 45 43 40 36 32 29 27 24 22 19 17 15 13 12 11 11 11 11 11 11 10 10 9 9 10 10 9 8 8
14 14 14 15 17 19 21 23 26 28 30 34 36 36 35 35 37 40 42 44 48 54 60 66 68 68 68 69 71 75 78 79 77 75 72 71 69 69 68 67 66 65 64 63 62 62 62 62 61 60 58 56 53 51 48 45 41 38 34 31 28 25 22 19 16 14 13 13 13 12 12 11 11 11 11 11 10 10 10 9 9 9 8 8 8
15 15 15 16 18 20 22 25 28 31 35 38 39 39 37 36 37 39 40 45 52 58 63 68 69 69 69 72 75 78 79 78 76 75 74 74 73 72 71 71 69 67 66 66 65 64 64 64 63 60 57 54 51 47 43 39 35 32 29 27 23 20 17 15 13 13 14 13 13 13 12 11 11 11 11 11 10 10 10 9 9 9 9 8 8
17 17 17 18 19 21 23 27 30 33 38 41 41 40 37 36 37 38 42 49 55 59 64 69 71 72 76 80 80 78 76 76 76 77 76 76 75 75 74 72 70 69 68 68 67 66 64 63 60 57 54 50 46 41 37 33 30 27 24 21 18 15 14 14 14 15 14 13 13 12 12 11 12 12 12 11 11 10 10 9 9 9 9 8 8
19 19 19 19 20 22 25 28 31 35 38 40 40 38 37 38 41 45 49 54 56 59 65 71 75 77 81 83 81 77 77 79 80 79 78 78 78 77 75 71 70 69 69 68 66 63 60 58 55 52 48 43 39 35 32 29 25 22 18 16 15 14 14 15 15 14 13 13 12 12 12 12 13 12 11 11 10 10 10 9 9 9 8 8 8
22 22 22 21 23 25 27 30 33 35 36 36 36 36 39 43 47 50 52 54 57 62 69 74 75 76 78 81 82 82 82 82 81 79 79 78 77 75 73 71 70 68 66 63 60 57 54 51 48 44 40 37 33 30 27 24 21 18 16 15 15 15 15 15 14 13 13 12 12 12 13 13 12 11 11 11 10 10 9 9 9 9 9 8 8
23 24 24 25 26 27 29 30 31 32 33 33 34 37 40 43 45 47 50 55 60 65 69 70 70 71 75 79 83 84 82 81 80 78 77 76 74 73 71 68 66 62 59 56 54 51 47 44 40 37 34 32 28 25 21 19 17 17 16 16 15 15 15 14 13 13 13 12 13 13 13 12 11 11 11 10 10 9 9 9 9 9 9 9 9
23 24 26 27 28 28 29 29 29 30 31 31 33 35 37 39 42 46 51 56 59 60 61 63 65 68 72 76 77 78 79 79 77 75 72 71 71 69 66 62 58 55 53 51 49 45 42 38 35 32 29 25 22 19 17 17 17 17 16 16 15 15 15 14 14 13 14 14 14 14 12 12 12 11 10 9 9 9 9 9 10 10 10 10 10
23 25 28 30 31 31 31 30 30 30 30 30 31 34 37 41 45 48 50 51 52 52 54 57 61 64 67 69 70 72 73 73 71 68 67 67 66 64 61 57 54 52 50 48 45 41 37 32 29 25 21 18 17 17 18 18 18 16 15 15 15 15 15 15 14 14 15 15 14 13 12 12 11 10 9 9 10 10 10 10 11 11 11 11 12
22 25 28 30 32 33 33 33 32 32 32 32 34 37 40 42 43 44 43 43 44 47 49 51 53 55 57 59 61 64 65 64 63 63 63 63 62 59 57 55 52 50 47 43 39 35 30 25 21 18 17 17 18 19 19 18 16 15 15 15 15 16 16 16 15 15 15 15 14 13 12 11 10 10 10 10 10 11 11 12 12 13 13 13 13
23 22 24 27 30 33 35 36 37 37 37 37 38 39 40 41 41 42 43 44 44 45 46 46 47 48 50 52 54 55 55 56 57 59 60 60 59 56 54 51 48 44 40 36 31 26 23 19 17 17 18 19 19 19 17 16 15 15 15 16 17 17 16 15 14 14 14 14 13 12 11 11 10 10 11 11 12 12 13 13 13 14 14 14 13
25 23 22 22 25 28 32 36 38 39 40 40 40 40 42 42 44 45 46 47 47 47 47 48 48 48 49 49 49 50 51 53 55 56 56 56 55 52 49 45 41 36 32 27 23 20 19 18 19 19 19 19 18 17 16 15 15 15 16 18 19 18 16 14 14 15 14 12 11 11 11 11 11 11 12 13 14 14 14 15 15 15 14 14 15
26 25 23 22 22 23 25 29 32 35 37 39 41 43 44 45 46 47 47 48 49 50 51 52 52 51 49 49 49 50 51 51 51 50 50 50 48 45 41 36 31 27 24 21 20 19 19 20 20 20 19 18 17 16 15 15 16 17 19 19 18 16 15 15 15 14 12 11 11 12 12 12 12 13 14 15 15 15 16 16 15 15 16 18 21
26 25 24 23 22 22 22 24 26 29 33 36 39 41 42 44 45 47 49 50 52 53 53 53 52 51 50 49 49 49 48 46 45 44 43 41 39 36 32 27 24 22 20 20 20 20 20 20 20 19 18 17 16 15 15 17 18 19 19 18 17 15 15 15 14 12 12 12 12 12 13 14 15 16 16 16 16 16 16 16 17 19 22 24 27
25 25 24 23 23 23 23 24 24 26 28 30 33 36 38 41 43 45 47 49 50 50 51 50 50 50 49 47 46 44 41 39 37 36 34 31 29 26 24 22 22 21 20 20 20 19 19 19 19 18 17 16 15 16 18 19 19 18 18 17 16 16 14 13 12 12 13 13 13 14 15 16 17 17 17 17 16 16 17 19 22 26 29 31 32
Wind_Speed
83 84 86 87 88 89 90 91 91 92 92 93 94 95 96 97 98 99 100 101 103 104 105 106 107 108 109 110 112 115 119 123 128 134 140 145 149 152 153 155 155 156 157 157 158 158 159 159 159 160 160 160 161 161 162 162 163 164 165 165 166 167 168 168 169 169 171 172 172 173 173 174 173 174 173 173 173 173 172 172 171 171 171 171 170
84 85 87 88 90 91 92 93 94 94 95 95 96 97 98 98 99 100 101 102 103 104 105 106 107 108 109 110 111 112 114 116 119 123 128 134 140 145 148 152 154 156 157 159 160 161 161 161 161 162 162 163 163 164 165 165 166 167 168 168 169 170 170 171 172 172 173 174 175 175 174 174 174 173 173 173 172 172 172 171 171 170 170 170 170
85 86 88 89 91 93 94 95 95 96 96 97 97 98 99 99 100 101 102 103 103 104 105 105 106 107 109 110 111 113 114 115 116 118 120 124 129 134 139 143 148 151 155 158 160 162 163 163 163 164 164 165 165 166 167 168 169 169 170 171 171 172 173 173 174 174 175 175 175 175 174 174 173 172 172 172 172 171 171 170 170 169 169 169 168
86 87 89 91 92 93 95 96 96 97 97 98 98 99 99 100 101 102 103 103 104 104 105 106 107 107 108 109 111 112 114 115 117 118 119 121 123 126 130 133 138 142 147 152 156 160 162 163 164 165 166 167 168 169 170 171 171 172 172 173 174 174 174 175 175 175 175 174 174 174 173 172 172 171 171 171 171 171 170 170 169 169 168 167 167
87 89 91 93 94 94 95 96 97 97 97 98 98 99 100 100 101 102 103 104 105 105 106 107 107 108 109 110 111 112 114 115 117 118 120 121 123 124 126 128 130 134 138 142 147 152 156 159 161 163 165 167 168 169 170 171 172 172 173 173 174 174 174 173 173 173 172 172 172 171 171 171 171 171 171 171 170 170 169 169 168 168 168 167 167
88 90 92 94 95 95 95 95 96 97 98 98 98 99 99 100 101 102 103 104 105 107 108 108 109 109 110 111 112 113 114 116 117 118 120 121 123 124 126 127 128 130 132 135 138 143 147 151 154 156 159 161 164 165 167 168 169 169 170 170 170 171 171 171 171 170 170 170 170 170 170 170 171 171 171 170 170 170 170 169 169 168 168 168 167
90 92 93 94 95 95 95 95 96 97 97 98 98 98 99 99 100 101 102 104 105 107 108 109 110 110 111 112 113 114 115 116 118 119 120 121 122 124 126 127 128 129 130 132 134 136 139 142 145 148 151 154 156 158 160 162 163 164 165 166 167 168 168 169 169 169 169 170 170 170 170 170 170 171 170 170 170 170 170 170 170 170 170 169 168
92 92 93 93 94 94 95 95 95 96 97 97 97 97 98 99 99 100 101 102 104 105 107 108 110 110 111 112 113 114 115 117 118 119 120 121 122 123 125 126 128 129 130 132 133 134 135 137 139 141 143 146 148 150 153 155 157 159 161 162 164 165 166 167 168 168 169 169 169 169 169 169 169 170 170 169 170 170 169 170 171 171 170 169 167
92 93 92 92 93 93 94 94 94 95 96 96 96 96 96 97 98 99 100 100 101 103 104 106 108 109 110 112 113 114 115 116 118 119 120 122 122 123 124 126 127 128 129 131 132 133 134 135 136 137 139 140 142 144 146 148 150 153 155 156 158 160 161 163 164 165 166 166 167 167 168 168 168 169 169 169 169 169 168 167 167 166 165 165 163
92 92 92 92 91 92 92 93 93 93 94 94 94 94 94 95 96 97 98 99 99 100 102 103 105 107 109 110 112 113 114 115 117 119 120 121 122 123 124 125 126 127 127 129 130 131 132 134 135 136 137 138 139 140 141 143 144 146 148 150 152 153 155 157 158 160 161 162 163 164 165 165 165 165 166 166 165 165 164 162 162 161 160 161 162
92 92 92 91 90 90 91 91 91 91 91 91 91 92 92 92 93 94 95 96 97 98 99 101 102 104 106 108 110 111 113 114 116 117 119 120 121 122 123 124 124 125 126 127 128 129 131 132 134 135 136 137 138 139 140 141 142 144 145 146 147 149 150 152 153 154 156 157 158 159 160 160 160 160 160 160 160 160 160 159 159 159 159 159 160
92 92 91 90 90 89 90 90 90 89 88 88 88 88 89 89 89 90 92 93 94 96 97 99 100 102 104 106 108 110 111 113 114 115 117 118 119 120 121 122 123 124 124 125 126 128 130 131 133 135 136 137 138 139 140 141 142 143 144 145 146 147 148 149 150 151 152 152 153 154 155 156 156 156 156 157 158 158 159 158 158 158 158 158 159
92 91 90 90 89 89 89 89 88 87 86 86 85 85 85 86 87 87 88 90 91 92 94 95 97 99 101 103 105 107 109 111 112 114 115 116 117 118 119 120 121 122 123 124 125 127 129 130 132 133 135 136 137 138 139 141 142 143 144 144 145 146 147 148 149 150 150 151 152 152 153 154 155 156 156 156 156 157 157 157 157 156 156 156 156
91 91 90 89 88 88 88 87 86 84 84 83 81 81 82 83 84 84 85 86 87 89 90 91 93 95 97 99 101 103 106 108 110 111 112 114 114 115 116 117 118 120 121 122 123 125 126 128 130 132 133 134 135 136 138 139 140 141 142 143 144 145 146 147 148 149 150 150 151 152 152 153 153 154 154 154 154 154 154 154 154 153 153 153 153
91 90 89 88 87 86 86 84 83 82 81 80 78 78 79 80 81 81 82 83 84 85 86 87 89 91 93 95 98 100 102 104 106 108 110 111 111 112 113 114 115 117 118 119 120 122 123 125 127 128 130 131 132 133 134 136 137 138 139 141 141 142 144 145 145 146 147 148 149 149 149 150 150 150 150 150 150 150 151 151 150 150 149 150 150
90 89 88 87 85 84 83 82 80 79 77 76 75 75 76 77 78 79 79 80 81 82 83 83 85 87 89 91 94 96 99 101 103 105 107 108 109 109 110 111 112 113 114 116 117 118 120 121 123 125 126 127 128 129 131 132 133 135 136 137 138 139 140 141 142 143 144 144 145 145 146 146 146 146 147 147 147 147 147 147 147 147 146 146 146
89 87 86 84 82 81 80 78 77 75 74 73 72 72 73 74 75 76 77 78 79 79 80 80 82 83 85 88 90 93 95 97 99 101 103 105 106 107 108 108 109 110 112 113 114 115 117 118 120 121 122 124 125 126 127 128 130 131 132 134 135 136 137 138 139 140 140 141 141 142 143 143 143 144 144 144 144 144 144 144 144 143 142 141 141
87 85 84 82 80 79 77 75 74 72 71 69 68 69 70 71 72 74 75 76 76 77 78 79 80 81 82 84 86 89 91 93 96 98 100 101 102 103 105 106 107 108 109 110 112 113 114 116 117 119 120 122 123 124 125 126 127 129 130 131 132 133 134 135 136 137 137 138 138 139 140 140 140 141 141 141 141 141 140 139 139 138 136 135 134
85 83 81 79 78 76 74 73 71 70 69 67 66 66 67 68 70 71 73 73 74 75 76 77 78 79 80 82 83 85 87 90 92 94 96 98 99 101 102 103 104 106 107 108 110 111 112 114 115 116 118 119 121 122 123 124 125 126 128 129 129 130 131 132 133 133 134 134 135 135 135 136 136 136 136 136 136 136 135 134 133 131 130 129 127
83 81 79 77 75 73 72 70 69 69 67 66 64 64 65 66 68 69 70 71 72 72 74 75 76 77 79 80 82 83 84 86 88 91 93 95 96 98 99 100 102 103 104 105 107 108 109 111 112 113 115 116 118 119 120 121 122 123 124 125 126 126 127 128 128 129 129 129 130 130 130 130 130 130 129 129 129 128 128 127 125 124 123 122 121
81 79 77 74 72 70 69 68 67 67 66 65 64 64 64 65 66 67 69 70 70 70 72 73 74 76 77 79 80 81 82 83 85 87 89 90 92 93 95 96 97 98 100 101 102 103 105 106 108 109 111 112 113 114 115 116 117 118 119 119 120 121 121 122 122 123 123 123 123 124 123 123 123 123 122 122 122 121 121 120 119 118 117 117 117
79 77 74 72 69 68 67 67 66 65 65 64 64 63 63 64 65 66 67 68 67 68 69 71 72 74 76 77 78 79 80 81 82 83 85 86 87 88 89 90 92 93 94 95 97 98 100 101 103 104 106 107 108 109 110 111 111 112 113 113 114 114 115 115 116 116 117 117 117 117 117 116 116 116 115 115 115 115 115 115 115 115 115 115 115
76 74 72 70 68 66 66 65 65 64 63 63 62 62 62 63 64 65 66 66 66 66 68 69 71 72 74 75 77 77 78 78 79 80 81 83 83 84 85 86 88 89 90 92 93 95 96 97 99 100 101 102 103 104 105 106 106 106 107 107 108 108 109 109 110 110 110 111 111 111 111 110 110 111 111 111 112 112 112 113 113 114 113 113 112
74 72 70 68 66 65 64 64 64 63 63 62 61 61 61 62 63 64 65 65 65 66 67 68 70 71 73 74 75 76 76 77 77 78 79 81 82 83 84 85 86 87 88 90 91 92 93 94 95 96 97 98 99 100 100 101 101 101 102 102 102 103 103 104 104 104 105 105 106 106 107 107 108 109 110 110 111 111 110 110 110 110 109 108 109
71 69 67 66 64 63 63 63 63 63 62 61 60 60 61 62 63 64 65 65 65 66 68 69 70 71 72 73 74 75 76 76 77 77 78 79 81 82 83 84 85 86 87 88 89 90 91 91 92 93 94 94 95 95 96 96 97 97 98 98 98 99 99 100 100 101 102 103 104 105 106 107 108 109 109 109 109 108 107 106 106 106 105 105 106
69 67 65 63 62 62 61 61 61 62 61 61 60 61 61 62 63 64 65 65 66 67 68 69 70 71 72 73 74 75 76 77 77 77 78 78 80 81 83 83 84 85 85 86 87 87 88 89 89 90 90 91 92 92 93 93 94 94 95 96 96 97 97 98 99 100 101 103 104 105 106 107 107 107 107 107 106 105 104 103 103 103 103 103 103
67 65 63 61 61 60 60 60 60 61 60 60 60 60 61 62 63 64 65 66 66 67 67 68 70 71 72 73 74 75 76 77 77 78 78 79 79 81 82 83 83 83 83 84 84 85 85 86 87 87 88 89 89 90 91 91 92 93 93 94 95 96 97 98 99 100 101 102 104 104 105 105 105 104 104 104 103 103 102 101 100 100 100 99 99
64 63 61 60 59 59 58 59 59 59 59 59 60 60 61 61 62 63 64 65 66 66 67 68 69 70 72 73 74 75 76 76 77 77 78 78 78 79 80 81 81 82 82 82 83 83 84 84 85 86 86 87 88 89 90 91 91 92 93 94 95 96 98 98 99 100 101 101 102 102 102 102 102 101 101 101 101 101 100 98 97 97 97 96 96
63 61 60 59 58 58 57 57 58 58 58 59 59 60 60 61 62 63 64 64 65 65 66 67 68 69 71 72 73 73 74 75 76 76 77 77 77 78 78 78 79 80 81 81 81 82 83 83 84 85 86 86 87 88 90 91 91 92 93 94 95 96 97 98 98 98 98 98 98 98 98 98 98 98 98 98 98 98 97 96 95 95 94 94 94
61 59 58 58 57 57 57 57 57 57 58 58 58 59 60 61 62 62 63 63 63 64 65 66 67 68 69 70 71 72 72 73 74 74 75 75 76 76 76 77 77 78 79 80 80 81 82 83 83 84 86 87 88 89 90 91 92 93 94 94 95 95 95 95 95 95 95 95 95 95 95 95 95 95 95 95 95 96 95 94 94 93 92 92 91
59 58 57 57 56 56 56 57 57 57 57 57 58 58 59 60 61 61 61 62 63 63 64 65 65 66 67 68 69 70 71 71 72 73 73 74 75 75 75 76 77 78 78 79 80 81 81 82 83 85 86 87 88 89 90 91 91 92 92 92 92 92 92 92 92 93 92 92 92 92 92 92 92 93 93 93 93 93 93 93 92 91 90 89 88
58 57 56 56 55 55 56 56 56 56 56 57 57 58 58 59 59 60 60 61 62 63 63 63 64 64 65 66 67 68 68 69 71 71 72 73 74 74 75 75 76 77 78 79 80 81 82 83 84 85 86 87 87 88 88 88 89 89 89 89 89 89 88 89 89 89 89 89 90 89 90 90 90 90 90 90 90 90 90 90 89 87 86 86 85
57 57 56 55 55 55 55 55 56 56 56 56 57 57 58 58 59 59 60 61 61 62 62 62 63 63 64 64 65 65 67 68 69 70 71 72 73 73 74 75 76 77 78 79 80 80 81 82 83 84 84 85 85 85 85 86 86 86 86 86 86 86 86 86 86 87 87 88 88 88 88 88 88 87 87 87 87 86 86 85 84 83 82 82 81
57 56 55 55 55 54 54 54 54 55 55 56 56 56 56 57 57 58 58 59 59 60 60 61 62 62 62 63 63 64 65 66 68 69 70 71 72 73 74 75 76 76 77 78 79 79 80 80 81 81 82 82 82 83 83 83 83 83 83 83 83 84 84 84 85 85 86 86 86 86 86 86 85 84 84 84 83 83 82 81 80 79 78 77 77
56 55 54 54 54 53 53 53 53 53 54 54 55 55 55 55 55 56 56 56 57 58 59 60 60 60 60 61 62 63 64 65 67 68 69 70 71 72 73 74 74 75 76 76 77 77 78 78 79 79 79 80 80 80 80 80 80 81 81 82 82 82 83 83 83 83 84 84 84 84 84 83 82 81 81 81 80 79 79 78 77 75 74 73 73
55 54 54 53 53 53 53 53 53 52 53 53 53 53 54 54 54 54 55 56 57 58 58 58 58 58 59 60 60 61 63 64 66 67 68 69 70 71 71 72 73 73 74 75 75 76 76 76 76 76 77 77 78 78 78 79 79 80 80 81 81 81 81 81 81 81 81 81 81 81 81 79 78 78 78 78 77 76 75 74 73 72 71 70 69
54 53 53 52 52 52 52 53 53 53 52 52 52 52 53 53 53 54 55 55 56 56 56 56 57 58 58 59 59 60 62 63 65 66 67 68 69 69 70 70 71 72 72 73 73 73 74 74 74 74 75 75 76 77 78 78 79 79 80 80 79 79 79 79 78 78 78 79 79 78 77 76 75 74 74 74 73 72 71 69 68 68 67 66 64
53 53 52 52 52 52 52 52 52 52 52 52 52 52 52 52 53 54 55 55 55 55 55 55 57 57 57 58 59 60 61 63 64 65 66 67 67 68 68 69 69 70 70 71 71 72 72 72 73 73 74 75 76 76 77 78 78 78 78 78 77 77 76 76 76 75 76 76 76 75 74 73 72 70 70 70 69 68 67 66 65 64 64 62 61
52 52 52 52 52 52 52 52 52 52 52 52 52 52 53 53 53 54 54 54 54 54 55 56 56 57 57 57 58 59 61 62 63 64 65 65 66 67 67 68 68 68 69 69 70 71 71 72 73 73 74 75 75 76 76 76 76 76 76 75 75 74 74 73 73 73 73 73 72 72 70 69 68 67 67 66 66 65 64 63 62 61 60 59 58
51 51 52 51 51 51 51 52 52 52 52 52 53 53 54 54 54 53 53 53 54 55 55 55 56 56 56 57 58 60 61 62 63 63 64 65 65 66 66 67 67 68 68 69 70 71 71 72 73 73 74 74 74 75 75 74 74 73 73 73 72 72 72 71 70 70 70 69 68 67 66 65 64 64 63 63 62 61 60 60 59 57 56 55 53
51 51 51 51 51 51 51 51 52 52 52 53 53 54 54 53 53 53 53 54 54 55 55 56 56 57 57 58 59 59 60 61 63 63 64 64 65 65 66 67 67 68 68 69 70 71 71 72 72 73 73 73 73 73 72 72 72 71 71 71 70 70 69 68 67 66 65 65 64 63 62 61 60 60 60 59 58 57 57 56 55 53 52 50 50
51 51 51 51 51 51 51 51 52 52 52 53 53 53 53 53 53 53 54 54 54 55 55 56 57 57 57 58 59 59 60 62 62 63 64 64 65 66 66 67 67 68 68 69 70 70 70 71 71 72 72 71 71 70 70 69 70 70 70 69 68 67 66 65 64 63 62 62 60 59 58 58 57 57 56 55 55 54 54 52 51 49 48 47 46
52 52 51 51 50 51 51 51 52 52 52 52 52 53 53 53 54 54 54 54 54 55 56 57 57 57 57 58 59 60 61 62 62 63 64 65 65 66 66 67 67 67 68 68 69 69 69 70 70 70 69 69 68 68 68 68 68 68 67 66 65 64 62 62 61 60 59 58 57 56 55 55 54 53 52 52 51 51 50 48 47 45 44 43 43
53 52 51 51 51 51 51 51 51 52 52 52 53 53 53 53 53 53 54 54 55 56 57 57 57 57 58 58 59 60 61 62 62 63 64 64 65 66 66 67 67 67 67 67 68 68 68 68 68 67 67 67 66 67 67 66 66 65 64 62 61 60 59 59 58 57 56 55 54 54 53 51 50 49 49 48 47 46 45 44 43 42 41 40 40
53 52 52 51 51 51 51 51 51 52 52 52 52 52 52 52 53 53 54 55 56 56 57 57 58 58 58 59 59 60 61 62 63 63 63 64 65 65 66 66 66 66 66 67 67 67 67 66 66 65 65 65 65 65 64 64 63 62 60 58 57 57 56 56 55 53 52 52 51 51 49 48 47 46 45 44 43 42 41 40 39 39 38 37 37
53 52 52 52 52 51 51 51 51 51 51 51 52 52 52 53 53 54 55 55 56 56 57 58 58 58 59 59 59 60 61 62 62 63 63 64 64 65 65 65 65 65 65 65 65 65 65 64 64 64 63 63 63 62 62 61 60 58 56 55 54 53 53 52 51 49 48 48 47 47 46 44 43 42 41 40 39 38 37 37 36 36 35 34 33
53 53 53 52 52 52 51 51 50 50 50 51 51 52 52 53 53 53 54 54 55 56 56 57 58 58 59 59 59 60 60 61 61 62 62 63 63 64 64 64 64 64 64 64 63 63 63 63 62 62 61 60 60 59 59 57 56 54 53 52 51 51 50 49 47 46 45 44 43 42 41 40 39 38 37 36 35 34 34 34 33 32 31 31 30
54 53 53 53 52 52 52 51 51 51 51 51 51 51 52 52 52 53 53 54 54 55 56 56 57 58 58 59 59 59 60 60 60 61 62 62 62 62 62 63 63 62 62 62 62 62 61 61 60 59 58 58 57 56 55 54 52 51 50 48 48 48 47 45 44 43 42 40 39 38 37 36 35 33 32 32 32 31 31 30 29 28 28 27 27
54 54 54 54 53 53 53 53 52 52 52 51 51 51 52 52 52 52 53 53 54 54 55 56 56 57 57 58 58 59 59 59 60 60 60 60 61 61 61 61 61 61 61 61 60 59 59 58 57 56 55 55 54 53 52 51 49 47 46 45 45 44 43 41 41 40 38 36 35 34 33 31 30 29 29 28 28 28 27 26 26 25 24 23 23
55 55 54 54 54 54 53 53 53 53 53 52 52 52 52 52 52 53 53 53 53 54 54 55 56 56 57 57 58 58 59 59 59 59 59 59 59 60 60 60 60 60 59 59 58 56 55 54 53 52 52 52 51 50 49 47 46 44 43 42 41 40 39 38 37 35 33 32 31 30 28 27 27 26 26 25 25 24 24 23 21 20 20 20 20
56 55 55 55 55 54 54 54 54 54 54 54 54 54 53 53 53 53 53 53 54 54 54 55 55 56 56 57 57 58 58 58 58 58 58 58 58 58 58 58 58 57 57 56 54 53 51 51 50 50 50 49 48 46 45 44 43 41 39 39 38 37 35 34 32 30 29 28 27 25 25 24 23 23 22 22 21 20 19 18 17 17 17 18 19
Wind_Direction
268 268 268 267 266 265 264 264 263 263 263 262 262 262 261 261 260 260 260 261 261 260 260 260 259 258 258 258 257 257 256 256 255 255 255 255 256 256 257 258 258 259 259 260 261 261 262 262 263 264 264 265 265 266 267 267 268 269 270 270 271 272 273 273 274 274 275 276 277 277 278 279 279 280 281 281 282 282 283 284 285 285 286 287 287
269 268 268 268 268 267 266 265 264 264 263 263 263 263 263 263 262 262 261 261 261 261 261 261 260 259 259 258 258 258 258 257 257 256 256 256 256 256 257 257 257 257 258 258 259 260 260 261 262 262 263 264 264 265 266 267 267 268 269 270 270 271 272 273 273 274 275 276 276 277 277 278 279 279 280 281 281 282 283 284 284 285 286 286 287
270 269 269 268 268 268 267 266 266 265 265 264 264 264 264 264 264 263 263 262 262 262 262 261 261 260 260 259 259 258 258 258 258 257 257 257 256 257 257 257 257 257 257 257 258 258 259 260 260 261 262 262 263 264 265 266 267 268 268 269 270 270 271 272 272 273 274 275 275 276 277 277 278 279 280 280 281 282 283 283 284 285 285 286 287
272 271 271 270 269 268 268 268 267 267 266 266 265 265 265 264 264 264 264 263 263 263 262 262 261 261 260 260 259 258 258 258 257 257 257 257 257 257 257 257 257 257 257 257 257 258 258 259 259 259 260 261 261 262 263 264 265 266 267 268 269 269 270 271 271 272 273 274 275 275 276 277 278 279 280 280 281 282 283 284 284 285 286 287 287
274 273 273 272 271 270 269 269 269 268 268 267 266 266 265 265 265 264 264 263 263 263 262 262 261 261 260 260 259 259 258 257 257 257 257 257 257 257 257 257 257 257 257 257 257 258 258 259 259 259 260 260 261 261 262 263 264 265 265 266 267 268 269 270 271 272 273 274 275 276 277 277 278 279 280 281 282 282 283 284 285 286 286 287 287
275 275 274 273 273 272 271 271 270 269 269 268 267 266 266 265 264 264 263 263 263 262 262 262 261 261 260 259 259 258 258 258 257 257 257 257 257 257 258 258 258 258 257 257 258 258 258 259 259 260 260 261 261 262 262 263 263 264 265 266 267 268 269 270 271 272 273 274 275 276 277 278 278 279 280 281 282 283 284 284 285 286 286 287 287
278 276 275 275 274 274 273 272 272 271 270 269 268 267 266 266 265 264 263 263 262 262 262 262 261 261 260 260 259 259 258 258 258 257 257 257 257 257 258 258 258 259 259 259 259 259 259 259 260 260 261 261 262 262 263 264 264 265 266 267 268 269 270 271 272 272 273 274 275 276 277 277 278 279 280 281 282 283 283 284 285 286 286 287 287
280 278 277 276 276 275 274 273 273 272 271 270 269 268 268 267 266 265 263 263 262 262 262 262 261 261 260 260 259 259 259 258 258 258 258 257 257 258 258 258 259 259 259 260 260 260 260 261 261 261 262 262 263 263 264 264 265 266 267 267 268 269 270 271 272 272 273 274 275 276 277 278 278 279 280 281 282 282 283 284 284 285 286 286 287
281 280 279 278 277 276 275 274 273 273 272 271 270 269 268 267 266 265 264 263 262 262 261 261 261 261 260 260 259 259 259 258 258 258 258 258 258 258 258 258 259 259 260 260 261 261 262 262 263 263 263 264 264 265 265 265 266 267 267 268 269 269 270 271 272 272 273 274 275 276 277 278 278 279 280 281 281 282 283 283 284 284 285 285 286
282 281 280 279 279 278 277 276 275 274 273 272 271 270 269 267 266 266 265 264 263 262 261 260 260 260 260 260 259 259 258 258 258 258 258 258 258 258 258 259 259 260 260 261 261 262 263 263 264 264 264 265 265 266 266 266 267 267 268 268 269 270 270 271 272 273 273 274 275 276 277 277 278 279 280 280 281 282 282 283 283 284 284 285 286
284 283 282 282 281 280 279 278 277 275 274 273 272 271 270 268 267 265 264 263 262 261 260 260 259 259 259 259 259 259 258 258 258 258 258 258 259 259 259 259 260 260 261 261 262 262 263 263 263 264 264 265 265 266 266 267 267 268 268 269 269 270 271 271 272 273 274 274 275 276 276 277 278 279 279 280 281 281 282 283 283 284 284 285 286
286 285 284 284 283 282 281 280 278 277 276 274 273 272 270 269 267 266 264 263 262 261 260 259 259 258 258 258 258 258 258 258 258 258 258 259 259 259 259 260 260 260 261 261 262 262 263 263 263 264 264 264 265 265 266 267 267 268 268 269 270 270 271 272 272 273 274 274 275 276 276 277 278 279 279 280 281 281 282 283 284 284 285 286 286
287 286 286 285 285 284 282 281 280 279 277 276 274 273 271 269 268 266 265 263 262 261 260 259 259 258 258 258 258 258 258 258 259 259 259 259 259 259 259 260 260 261 261 261 262 262 263 263 264 264 265 265 266 266 267 267 268 268 269 269 270 271 271 272 272 273 274 274 275 276 276 277 278 279 279 280 281 282 283 283 284 285 286 286 287
288 288 287 287 286 285 284 282 281 279 278 276 274 273 271 269 268 266 265 264 263 262 261 260 259 259 259 258 258 258 258 258 259 259 259 259 260 260 260 260 261 261 261 262 262 263 263 264 264 265 265 266 266 267 267 268 268 269 270 270 271 271 272 272 273 274 274 275 276 276 277 278 279 279 280 281 282 283 283 284 285 285 286 287 287
290 289 288 288 287 286 284 283 281 279 278 276 274 272 270 269 268 266 265 264 263 262 261 260 260 259 259 259 259 259 259 259 259 259 260 260 260 261 261 261 261 261 262 262 263 263 264 264 265 265 266 266 267 267 268 269 269 270 270 271 272 272 273 273 274 275 275 276 277 278 278 279 280 280 281 282 283 283 284 284 285 286 286 287 287
291 290 289 288 287 286 284 282 281 279 277 275 273 271 269 268 267 266 265 264 264 263 262 261 260 260 259 259 259 259 259 259 259 259 260 260 260 261 261 261 261 262 262 263 263 264 264 265 265 266 267 267 268 268 269 269 270 271 271 272 273 273 274 275 275 276 276 277 278 279 279 280 281 281 282 282 283 284 284 285 285 286 286 287 288
292 291 290 289 287 286 284 282 280 278 276 274 272 269 268 266 266 265 264 264 264 263 262 262 261 260 259 259 258 258 258 259 259 259 260 260 261 261 261 261 262 262 263 263 264 264 265 266 266 267 268 268 269 270 270 271 271 272 272 273 274 274 275 275 276 277 277 278 279 280 280 281 281 282 282 283 283 284 284 285 286 286 287 287 288
292 291 290 289 288 286 284 282 280 278 275 273 271 268 267 265 264 264 263 263 263 263 262 262 261 260 259 259 258 258 258 258 259 259 259 260 261 261 261 262 262 263 263 264 264 265 266 266 267 268 268 269 270 270 271 271 272 272 273 273 274 275 275 276 277 277 278 279 279 280 280 281 282 282 283 283 284 284 285 286 286 287 288 288 289
292 291 290 289 287 286 284 282 280 278 275 273 270 268 266 265 264 263 263 262 262 262 262 261 261 261 260 259 259 258 258 258 259 259 259 260 260 261 262 262 263 263 264 264 265 266 266 267 267 268 269 269 270 270 271 271 272 273 273 274 275 275 276 277 277 278 278 279 280 280 281 281 282 283 283 284 285 285 286 287 287 288 289 289 290
293 291 290 289 287 285 283 281 279 277 275 273 271 268 267 265 264 263 263 262 262 262 261 261 261 260 260 260 259 259 258 258 259 259 259 260 261 261 262 263 263 264 265 265 266 267 267 268 268 269 269 270 270 271 271 272 272 273 274 274 275 276 277 277 278 278 279 280 280 281 281 282 283 283 284 284 285 286 286 287 288 288 289 289 290
293 292 290 288 286 284 282 280 277 276 274 272 271 269 267 266 265 264 264 263 263 262 262 261 261 261 260 260 260 259 259 259 259 260 260 261 262 262 263 264 265 265 266 266 267 268 268 269 269 270 270 271 271 272 272 273 273 274 275 276 276 277 278 278 279 279 280 280 281 282 282 283 283 284 285 285 286 286 287 287 288 288 289 290 290
293 292 290 288 285 283 281 279 277 275 273 272 270 269 268 267 266 266 265 265 264 263 262 262 261 261 261 260 260 260 260 260 260 261 262 262 263 264 264 265 266 267 267 268 268 269 269 269 270 270 271 272 272 273 274 274 275 276 276 277 278 278 279 280 280 281 281 282 282 283 284 284 285 285 286 286 287 287 288 289 290 290 291 292 292
293 291 289 287 284 282 280 278 276 275 273 272 271 270 269 268 267 267 266 265 265 264 263 262 262 261 261 261 261 261 261 261 262 262 263 264 264 265 265 266 266 267 268 268 269 269 270 270 271 271 272 273 274 274 275 276 277 277 278 278 279 279 280 281 281 282 283 283 284 284 285 285 286 286 287 287 288 289 289 290 291 292 293 293 294
292 290 288 286 284 281 279 277 276 275 273 272 271 270 269 268 267 267 266 265 265 264 263 262 261 261 260 261 261 261 261 262 262 262 263 264 264 265 265 266 266 267 268 268 269 270 271 271 272 273 274 275 275 276 277 277 278 279 279 280 280 281 281 282 283 283 284 285 285 286 286 287 287 288 288 289 289 290 291 292 292 293 293 294 294
291 289 287 285 283 280 278 276 275 274 273 271 270 269 268 268 267 266 266 265 264 263 262 261 261 261 261 261 261 261 261 261 262 262 263 264 265 265 266 266 267 268 268 269 270 271 272 273 274 275 276 276 277 278 278 279 279 280 281 281 282 282 283 283 284 284 285 286 286 287 287 288 288 289 290 290 291 292 293 293 294 294 295 295 295
291 289 287 284 282 279 277 275 273 272 272 271 270 269 268 268 267 267 266 266 265 264 263 263 262 262 262 262 261 261 262 262 262 263 263 264 265 266 267 267 268 269 270 271 271 272 273 274 275 275 276 277 278 278 279 280 280 281 282 282 283 283 284 284 285 286 286 287 287 288 288 289 290 291 292 292 293 293 294 294 295 295 295 295 295
290 288 286 284 281 278 276 274 272 271 271 270 270 269 269 268 268 267 267 266 265 265 264 264 263 262 262 262 262 262 262 263 263 263 264 264 265 266 267 268 269 270 271 272 272 273 274 274 275 276 276 277 278 278 279 280 281 281 282 283 284 284 285 285 286 286 287 288 288 289 290 291 292 293 293 294 294 295 295 295 295 295 295 295 295
289 287 285 283 281 278 275 273 271 270 270 269 269 269 269 269 268 267 267 267 266 266 265 264 264 264 264 264 264 264 264 264 265 265 265 266 266 267 268 270 271 271 272 273 273 274 274 275 276 276 277 278 279 279 280 281 281 282 283 284 284 285 286 286 287 288 288 289 290 291 292 293 294 294 294 295 295 295 295 295 295 296 296 296 297
288 286 285 283 280 278 275 272 270 269 269 269 269 269 269 268 268 268 267 267 266 266 266 265 265 265 265 265 265 266 266 266 267 267 267 268 268 269 269 270 271 272 273 274 274 275 275 276 277 278 279 279 280 281 281 282 283 284 284 285 286 287 287 288 289 290 290 291 292 292 293 293 294 294 294 295 295 295 296 296 297 297 297 297 298
287 285 283 281 279 277 274 272 270 268 268 268 268 268 268 268 268 268 268 267 267 266 266 265 265 265 266 266 266 267 267 268 268 269 269 269 270 270 271 271 272 273 274 274 275 276 277 278 279 280 280 281 282 282 283 284 284 285 286 286 287 288 289 290 291 291 292 292 292 293 293 293 294 295 295 296 296 297 297 298 298 298 298 298 299
287 284 282 280 278 276 273 271 269 268 268 267 268 268 268 268 268 268 267 267 266 266 266 266 266 266 266 267 267 268 268 269 269 270 270 271 271 272 272 273 273 274 275 276 277 278 278 279 280 280 281 282 282 283 284 285 285 286 287 288 289 290 290 291 292 292 292 292 293 293 294 295 296 296 297 297 297 298 298 298 299 299 299 299 300
286 283 281 279 277 274 272 271 269 268 267 267 267 267 267 267 267 267 266 266 266 266 266 266 267 267 267 268 268 269 270 271 271 271 272 272 273 273 274 274 275 276 276 277 278 278 279 279 280 281 281 282 283 284 285 286 287 288 289 289 290 291 291 291 292 292 293 293 294 295 296 296 297 297 297 297 298 298 298 298 298 299 299 300 300
285 283 281 279 276 274 272 270 269 269 268 268 268 268 268 267 267 266 266 266 266 266 267 267 267 268 268 269 270 270 271 272 272 273 273 274 274 275 275 276 276 277 277 278 278 279 279 280 281 282 283 284 285 286 287 288 289 289 290 290 291 291 292 292 293 294 295 295 296 297 297 297 297 297 297 297 297 297 298 298 299 300 300 301 301
285 283 281 279 277 275 273 271 270 269 269 269 269 269 269 268 268 268 268 267 267 267 267 268 268 268 269 270 270 271 272 273 273 273 274 274 275 275 276 276 277 277 278 279 279 280 281 282 283 284 285 286 287 288 289 289 290 290 291 291 292 292 293 294 295 296 296 297 297 297 297 297 297 298 298 298 298 299 299 299 300 300 301 301 300
285 283 281 279 277 276 274 272 270 270 269 270 270 270 270 269 269 268 268 267 267 267 267 267 268 269 270 270 270 271 272 272 273 273 274 275 275 276 276 277 278 279 280 281 282 283 284 285 286 286 287 288 289 289 290 290 291 291 292 292 293 294 295 296 296 297 297 297 297 297 297 297 298 299 299 299 299 300 300 300 301 301 301 301 301
285 283 281 279 277 276 274 273 271 270 270 269 270 270 270 269 268 268 267 266 266 266 267 268 269 270 270 270 271 271 272 272 273 274 274 275 276 277 278 279 280 281 282 283 284 285 286 286 287 288 289 289 290 290 291 291 292 293 293 294 294 295 296 296 297 297 297 297 297 297 298 299 300 300 300 300 300 300 301 301 302 302 301 302 302
284 282 280 279 277 276 274 273 272 272 271 271 270 270 270 269 268 268 267 267 267 268 269 269 269 269 270 270 271 272 272 273 274 274 275 276 277 278 280 281 282 283 284 284 285 286 287 288 288 289 290 290 291 291 292 293 293 294 294 295 295 296 297 297 297 297 298 298 298 299 300 300 301 301 301 300 300 300 301 302 302 301 302 302 302
284 282 280 279 277 275 274 273 273 273 273 272 272 271 270 269 268 268 268 268 269 269 269 269 269 270 271 272 273 273 274 274 275 276 277 278 279 280 281 282 283 284 285 286 287 288 288 289 290 290 291 291 292 292 293 293 294 294 295 296 296 297 297 297 298 299 299 299 300 300 301 301 301 301 301 301 301 301 302 302 302 302 302 302 302
283 282 280 279 277 276 275 274 273 273 273 273 272 272 271 270 269 269 270 270 271 271 271 271 271 272 273 274 275 275 275 276 277 278 279 280 281 282 283 284 285 286 287 288 288 289 289 290 290 291 291 292 292 293 293 294 295 295 296 297 297 297 298 299 300 300 300 300 300 301 301 302 302 302 302 302 302 303 303 303 303 303 303 303 303
283 281 280 279 277 276 275 274 274 273 273 273 273 272 272 272 272 272 272 272 272 272 273 273 274 275 275 276 276 276 277 278 280 280 281 282 283 284 285 286 287 287 288 288 289 290 290 290 291 291 292 292 293 293 294 295 296 296 297 297 298 299 300 300 301 301 301 301 301 301 302 303 303 303 303 303 304 303 303 303 303 303 304 304 305
283 282 280 279 278 277 276 275 274 273 273 273 272 272 273 273 273 273 273 272 273 273 274 275 275 276 276 277 277 278 280 280 281 282 283 284 285 285 286 287 287 288 288 289 289 290 290 291 292 292 292 293 293 294 295 296 297 297 298 299 299 300 301 301 301 301 301 301 302 303 303 303 303 303 303 304 304 303 303 303 304 305 306 306 306
284 282 281 280 279 278 276 275 274 274 273 273 273 272 272 272 272 272 272 272 273 274 275 275 275 276 277 278 279 280 281 281 282 283 284 285 285 286 286 287 287 288 288 289 289 290 291 291 292 292 293 293 295 296 297 297 298 299 300 300 301 302 302 302 302 302 302 302 303 304 304 304 304 304 304 304 303 303 303 304 305 306 306 306 306
283 282 281 280 279 277 276 275 275 274 273 273 272 271 271 271 271 272 273 273 274 274 274 275 276 277 278 279 280 280 281 281 282 283 284 284 285 285 286 286 287 288 288 289 290 290 291 291 292 293 294 295 297 297 298 299 300 300 300 301 302 303 303 303 303 303 304 305 305 305 304 304 305 305 304 303 303 304 304 305 306 307 306 307 307
282 281 281 280 279 278 277 276 275 275 274 273 272 272 271 272 272 273 273 273 273 274 274 275 276 277 278 278 279 280 281 281 282 282 283 284 284 285 286 287 287 288 289 290 290 291 291 292 293 295 296 297 298 299 299 300 300 300 301 302 303 303 304 304 304 305 306 306 306 305 305 305 305 304 304 304 304 305 305 306 306 306 307 308 308
282 281 280 280 279 278 277 277 276 275 275 274 274 274 273 273 273 272 272 272 273 274 275 276 276 277 278 278 279 280 280 281 282 282 283 284 285 286 286 287 288 289 290 290 291 291 293 294 295 296 297 298 299 299 300 300 300 301 302 303 304 305 304 304 305 306 307 306 306 305 305 305 305 304 305 305 305 305 306 306 306 307 309 310 310
280 280 279 279 278 278 277 277 277 277 277 276 276 275 274 273 272 273 273 273 274 275 275 276 276 277 278 278 279 280 280 281 282 283 284 285 285 286 287 288 288 289 290 291 292 293 294 295 296 297 298 299 299 300 300 300 300 301 303 304 305 305 304 304 306 306 306 305 305 305 305 305 305 305 306 306 306 306 306 306 308 309 311 312 313
278 278 278 278 278 278 277 277 277 277 276 276 276 275 275 275 275 275 275 275 276 276 276 277 277 278 279 279 280 280 281 282 283 283 284 285 285 286 287 288 289 290 291 292 293 294 295 296 297 298 299 300 300 300 299 300 301 303 305 306 306 305 305 305 306 306 305 304 305 305 305 305 305 306 306 306 306 306 307 308 311 313 314 315 317
277 277 277 277 277 276 276 276 276 276 275 275 275 276 276 276 276 276 276 276 276 277 277 278 279 279 279 280 280 281 282 282 283 283 284 285 286 287 288 289 290 291 292 293 294 295 296 297 298 299 300 300 299 299 300 301 304 305 306 307 306 305 305 306 306 305 304 305 305 305 305 305 305 305 306 306 306 307 309 312 315 317 318 320 321
276 276 276 276 276 276 276 276 276 276 276 276 276 276 276 276 276 276 277 277 277 278 278 278 279 279 280 280 281 282 282 282 283 284 285 286 287 288 289 290 291 292 293 294 295 296 297 298 299 300 299 299 299 299 301 303 305 306 306 306 305 305 305 305 305 304 305 306 306 305 305 305 305 306 306 307 308 310 313 317 320 322 324 325 325
276 275 276 276 276 276 276 276 276 276 276 276 276 275 276 276 276 276 277 277 277 278 278 278 279 280 280 281 282 282 283 283 284 285 286 287 288 289 290 291 292 293 293 294 295 297 298 299 299 299 298 298 299 301 303 305 305 306 306 305 304 304 304 304 304 305 306 306 305 305 305 305 306 306 307 309 311 315 319 323 327 329 329 328 328
275 275 275 276 276 276 276 276 276 276 276 275 275 276 276 276 276 277 277 277 277 278 278 279 280 280 281 282 282 283 284 285 286 287 288 289 289 290 291 292 292 293 294 295 296 298 299 299 298 298 298 299 301 303 304 304 305 306 306 304 303 303 304 305 305 306 306 305 304 304 305 305 306 308 310 313 318 322 327 331 334 335 334 335 336